• Em Portugal
  • Lista de países
  • Para 7 dias
  • Temperatura da água
  • Mapas de satélite
  • Mapa do tempo
  • Widgets de tempo
  • user-avatar
    Iniciar Sessão

    Previsão horária em Akaba

    Hoje, 16 Julho, Segunda-feira

    Tempo Temperatura Precipitação Vento Pressão Humidade
    00:00 +34°C° 0 mm 2 m/s 743 mmHg 37%
    01:00 +32°C° 0 mm 1 m/s 743 mmHg 38%
    02:00 +31°C° 0 mm 1 m/s 743 mmHg 39%
    03:00 +31°C° 0 mm 1 m/s 743 mmHg 40%
    04:00 +31°C° 0 mm 1 m/s 743 mmHg 41%
    05:00 +30°C° 0 mm 1 m/s 743 mmHg 43%
    06:00 +31°C° 0 mm 1 m/s 744 mmHg 42%
    07:00 +32°C° 0 mm 1 m/s 744 mmHg 41%
    08:00 +33°C° 0 mm 1 m/s 744 mmHg 39%
    09:00 +34°C° 0 mm 1 m/s 744 mmHg 36%
    10:00 +35°C° 0 mm 1 m/s 744 mmHg 32%
    11:00 +38°C° 0 mm 2 m/s 744 mmHg 29%
    12:00 +38°C° 0 mm 2 m/s 743 mmHg 27%
    13:00 +39°C° 0 mm 2 m/s 743 mmHg 24%
    14:00 +40°C° 0 mm 3 m/s 743 mmHg 22%
    15:00 +40°C° 0 mm 3 m/s 743 mmHg 22%
    16:00 +40°C° 0 mm 3 m/s 742 mmHg 22%
    17:00 +41°C° 0 mm 4 m/s 742 mmHg 21%
    18:00 +40°C° 0 mm 4 m/s 743 mmHg 23%
    19:00 +38°C° 0 mm 3 m/s 743 mmHg 26%
    20:00 +37°C° 0 mm 3 m/s 743 mmHg 28%
    21:00 +36°C° 0 mm 3 m/s 743 mmHg 30%
    22:00 +35°C° 0 mm 2 m/s 744 mmHg 32%
    23:00 +35°C° 0 mm 2 m/s 744 mmHg 34%

    Amanhã, 17 Julho, Terça-feira

    Tempo Temperatura Precipitação Vento Pressão Humidade
    00:00 +34°C° 0 mm 2 m/s 744 mmHg 36%
    01:00 +32°C° 0 mm 1 m/s 744 mmHg 37%
    02:00 +32°C° 0 mm 1 m/s 744 mmHg 39%
    03:00 +31°C° 0 mm 1 m/s 744 mmHg 40%
    04:00 +31°C° 0 mm 2 m/s 744 mmHg 42%
    05:00 +30°C° 0 mm 2 m/s 744 mmHg 44%
    06:00 +31°C° 0 mm 2 m/s 744 mmHg 41%
    07:00 +32°C° 0 mm 2 m/s 744 mmHg 38%
    08:00 +33°C° 0 mm 1 m/s 744 mmHg 36%
    09:00 +35°C° 0 mm 2 m/s 744 mmHg 33%
    10:00 +37°C° 0 mm 2 m/s 744 mmHg 30%
    11:00 +38°C° 0 mm 2 m/s 744 mmHg 27%
    12:00 +39°C° 0 mm 2 m/s 744 mmHg 25%
    13:00 +40°C° 0 mm 3 m/s 743 mmHg 23%
    14:00 +40°C° 0 mm 3 m/s 743 mmHg 21%
    15:00 +40°C° 0 mm 3 m/s 742 mmHg 22%
    16:00 +41°C° 0 mm 4 m/s 742 mmHg 22%
    17:00 +41°C° 0 mm 4 m/s 742 mmHg 22%
    18:00 +40°C° 0 mm 4 m/s 742 mmHg 24%
    19:00 +38°C° 0 mm 3 m/s 743 mmHg 26%
    20:00 +37°C° 0 mm 3 m/s 743 mmHg 29%
    21:00 +36°C° 0 mm 3 m/s 743 mmHg 31%
    22:00 +36°C° 0 mm 3 m/s 743 mmHg 34%
    23:00 +35°C° 0 mm 3 m/s 744 mmHg 36%

    Depois de amanhã, 18 Julho, Quarta-feira

    Tempo Temperatura Precipitação Vento Pressão Humidade
    00:00 +34°C° 0 mm 2 m/s 744 mmHg 38%
    01:00 +34°C° 0 mm 2 m/s 743 mmHg 40%
    02:00 +32°C° 0 mm 2 m/s 743 mmHg 42%
    03:00 +31°C° 0 mm 2 m/s 743 mmHg 43%
    04:00 +31°C° 0 mm 1 m/s 743 mmHg 44%
    05:00 +30°C° 0 mm 1 m/s 744 mmHg 45%
    06:00 +31°C° 0 mm 1 m/s 744 mmHg 41%
    07:00 +32°C° 0 mm 2 m/s 744 mmHg 37%
    08:00 +34°C° 0 mm 2 m/s 744 mmHg 33%
    09:00 +36°C° 0 mm 2 m/s 744 mmHg 29%
    10:00 +37°C° 0 mm 2 m/s 744 mmHg 24%
    11:00 +39°C° 0 mm 2 m/s 744 mmHg 20%
    12:00 +40°C° 0 mm 3 m/s 744 mmHg 18%
    13:00 +40°C° 0 mm 3 m/s 743 mmHg 16%
    14:00 +42°C° 0 mm 3 m/s 743 mmHg 15%
    15:00 +42°C° 0 mm 4 m/s 743 mmHg 14%
    16:00 +42°C° 0 mm 4 m/s 742 mmHg 13%
    17:00 +42°C° 0 mm 4 m/s 742 mmHg 13%
    18:00 +41°C° 0 mm 4 m/s 743 mmHg 14%
    19:00 +39°C° 0 mm 3 m/s 743 mmHg 16%
    20:00 +38°C° 0 mm 3 m/s 744 mmHg 17%
    21:00 +37°C° 0 mm 3 m/s 744 mmHg 20%
    22:00 +36°C° 0 mm 2 m/s 744 mmHg 22%
    23:00 +35°C° 0 mm 2 m/s 744 mmHg 25%

    19 Julho, Quinta-feira

    Tempo Temperatura Precipitação Vento Pressão Humidade
    00:00 +34°C° 0 mm 2 m/s 744 mmHg 27%
    01:00 +34°C° 0 mm 2 m/s 744 mmHg 29%
    02:00 +32°C° 0 mm 2 m/s 744 mmHg 32%
    03:00 +31°C° 0 mm 2 m/s 744 mmHg 33%
    04:00 +31°C° 0 mm 2 m/s 744 mmHg 34%
    05:00 +30°C° 0 mm 1 m/s 744 mmHg 35%
    06:00 +32°C° 0 mm 1 m/s 744 mmHg 32%
    07:00 +33°C° 0 mm 1 m/s 744 mmHg 28%
    08:00 +34°C° 0 mm 1 m/s 745 mmHg 25%
    09:00 +36°C° 0 mm 1 m/s 744 mmHg 22%
    10:00 +38°C° 0 mm 2 m/s 744 mmHg 19%
    11:00 +40°C° 0 mm 2 m/s 744 mmHg 17%
    12:00 +41°C° 0 mm 2 m/s 744 mmHg 16%
    13:00 +43°C° 0 mm 3 m/s 743 mmHg 15%
    14:00 +43°C° 0 mm 3 m/s 743 mmHg 14%
    15:00 +43°C° 0 mm 3 m/s 743 mmHg 14%
    16:00 +43°C° 0 mm 3 m/s 742 mmHg 15%
    17:00 +43°C° 0 mm 3 m/s 742 mmHg 15%
    18:00 +42°C° 0 mm 3 m/s 743 mmHg 17%
    19:00 +39°C° 0 mm 3 m/s 743 mmHg 19%
    20:00 +38°C° 0 mm 2 m/s 744 mmHg 21%
    21:00 +37°C° 0 mm 2 m/s 744 mmHg 24%
    22:00 +36°C° 0 mm 2 m/s 744 mmHg 26%
    23:00 +36°C° 0 mm 2 m/s 744 mmHg 29%

    20 Julho, Sexta-feira

    Tempo Temperatura Precipitação Vento Pressão Humidade
    00:00 +35°C° 0 mm 2 m/s 744 mmHg 32%
    01:00 +34°C° 0 mm 2 m/s 744 mmHg 35%
    02:00 +34°C° 0 mm 2 m/s 744 mmHg 39%
    03:00 +32°C° 0 mm 2 m/s 744 mmHg 41%
    04:00 +32°C° 0 mm 2 m/s 744 mmHg 44%
    05:00 +31°C° 0 mm 2 m/s 745 mmHg 47%
    06:00 +32°C° 0 mm 2 m/s 745 mmHg 44%
    07:00 +34°C° 0 mm 2 m/s 745 mmHg 41%
    08:00 +35°C° 0 mm 2 m/s 745 mmHg 39%
    09:00 +36°C° 0 mm 2 m/s 745 mmHg 34%
    10:00 +38°C° 0 mm 2 m/s 745 mmHg 30%
    11:00 +39°C° 0 mm 2 m/s 744 mmHg 26%
    12:00 +40°C° 0 mm 3 m/s 744 mmHg 24%
    13:00 +42°C° 0 mm 3 m/s 744 mmHg 22%
    14:00 +43°C° 0 mm 4 m/s 743 mmHg 21%
    15:00 +42°C° 0 mm 4 m/s 743 mmHg 21%
    16:00 +42°C° 0 mm 5 m/s 743 mmHg 21%
    17:00 +42°C° 0 mm 5 m/s 743 mmHg 22%
    18:00 +41°C° 0 mm 5 m/s 744 mmHg 25%
    19:00 +40°C° 0 mm 5 m/s 744 mmHg 27%
    20:00 +37°C° 0 mm 4 m/s 744 mmHg 30%
    21:00 +36°C° 0 mm 4 m/s 745 mmHg 32%
    22:00 +35°C° 0 mm 4 m/s 745 mmHg 35%
    23:00 +34°C° 0 mm 3 m/s 745 mmHg 37%

    21 Julho, Sábado

    Tempo Temperatura Precipitação Vento Pressão Humidade
    00:00 +34°C° 0 mm 3 m/s 745 mmHg 39%
    01:00 +33°C° 0 mm 3 m/s 745 mmHg 40%
    02:00 +31°C° 0 mm 3 m/s 745 mmHg 42%
    03:00 +31°C° 0 mm 3 m/s 745 mmHg 43%
    04:00 +30°C° 0 mm 2 m/s 745 mmHg 45%
    05:00 +29°C° 0 mm 2 m/s 745 mmHg 47%
    06:00 +30°C° 0 mm 2 m/s 745 mmHg 43%
    07:00 +31°C° 0 mm 2 m/s 745 mmHg 40%
    08:00 +33°C° 0 mm 3 m/s 746 mmHg 36%
    09:00 +34°C° 0 mm 3 m/s 745 mmHg 32%
    10:00 +35°C° 0 mm 3 m/s 745 mmHg 28%
    11:00 +37°C° 0 mm 3 m/s 745 mmHg 24%
    12:00 +38°C° 0 mm 4 m/s 744 mmHg 22%
    13:00 +40°C° 0 mm 4 m/s 744 mmHg 21%
    14:00 +40°C° 0 mm 5 m/s 744 mmHg 19%
    15:00 +40°C° 0 mm 5 m/s 743 mmHg 20%
    16:00 +40°C° 0 mm 5 m/s 743 mmHg 21%
    17:00 +40°C° 0 mm 5 m/s 743 mmHg 22%
    18:00 +39°C° 0 mm 5 m/s 744 mmHg 26%
    19:00 +36°C° 0 mm 5 m/s 744 mmHg 30%
    20:00 +35°C° 0 mm 5 m/s 744 mmHg 34%
    21:00 +34°C° 0 mm 4 m/s 744 mmHg 36%
    22:00 +33°C° 0 mm 4 m/s 744 mmHg 39%
    23:00 +33°C° 0 mm 3 m/s 745 mmHg 41%
    Mostrar mais